Regional Weather Roundup
Issued by NWS

Home | Current Version | Previous Version | Graphics & Text | Print | Product List | Glossary On
Versions: 1 2 3 4 5 6 7 8 9 10 11 12 13 14 15 16 17 18 19 20 21 22 23 24 25 26 27 28 29 30 31 32 33 34 35 36 37 38 39 40 41 42 43 44 45 46 47 48 49 50
000
ASUS43 KMPX 041801
RWRMN
WEATHER ROUNDUP FOR MINNESOTA
NATIONAL WEATHER SERVICE TWIN CITIES/CHANHASSEN MN
100 PM CDT MON MAY 04 2015


NOTE: "FAIR" INDICATES FEW OR NO CLOUDS BELOW 12,000 FEET WITH NO
SIGNIFICANT WEATHER AND/OR OBSTRUCTIONS TO VISIBILITY. N/A MEANS
CURRENT SKY AND/OR WEATHER CONDITIONS ARE NOT AVAILABLE.

MNZ060>063-068>070-041900-
   Twin Cities Metro

CITY           SKY/WX    TMP DP  RH WIND       PRES   REMARKS
TWIN CITIES    MOSUNNY   67  31  26 NE12G18   30.19S
6HR MIN TEMP:  52; 6HR MAX TEMP:  67;

ST PAUL        MOSUNNY   66  32  28 N9G17     30.19S
CRYSTAL        MOSUNNY   69  30  23 N9        30.18S
LAKEVILLE      MOSUNNY   64  34  32 NE14G25   30.19R
EDEN PRAIRIE   MOSUNNY   65  32  29 NE7G18    30.18S
6HR MIN TEMP:  51; 6HR MAX TEMP:  67;

SOUTH ST PAUL  MOSUNNY   66  30  26 N12       30.19R
LAKE ELMO      FAIR      66  34  30 N8        30.20S
$$
MNZ001>005-007-008-013>017-022>024-027-028-041900-
   Northwest Minnesota

CITY           SKY/WX    TMP DP  RH WIND       PRES   REMARKS
BEMIDJI        SUNNY     60  27  29 SW5       30.24S
HALLOCK        PTSUNNY   63  27  25 NW6       30.21S
ROSEAU         MOSUNNY   63  28  27 W6G16     30.22S
WARROAD        MOSUNNY   57  34  41 E12       30.22F
THIEF RVR FALL MOSUNNY   61  28  29 CALM      30.23F
CROOKSTON      SUNNY     63  30  29 NE3       30.23S
FOSSTON        SUNNY     64  27  24 CALM      30.24S
DETROIT LAKES  PTSUNNY   61  32  33 NE6       30.24F
MOORHEAD       PTSUNNY   63  27  25 NW6       30.23F
PARK RAPIDS    PTSUNNY   62  31  31 VRB6      30.23S
MAHNOMEN       FAIR      61  31  33 SE5       30.23F
$$
MNZ006-009>011-018-025>026-041900-
   North Central Minnesota

CITY           SKY/WX    TMP DP  RH WIND       PRES   REMARKS
BAUDETTE       SUNNY     60  29  30 CALM      30.23S
FLAG ISLAND    MOSUNNY   48  36  61 SE7       30.21F
INTL FALLS     MOSUNNY   59  29  31 VRB5      30.21S
6HR MIN TEMP:  38; 6HR MAX TEMP:  60;

WASKISH        SUNNY     59  34  38 CALM      30.24S
BIG FORK       SUNNY     63  25  23 NW5       30.22S
LONGVILLE      MOSUNNY   59  27  29 W13       30.24S
GRAND RAPIDS   MOSUNNY   59  23  25 N8        30.23S
CRANE LAKE     SUNNY     57  27  30 NE3       30.22F
ORR            SUNNY     61  21  21 NW6       30.19S
COOK           SUNNY     59  27  29 N5        30.21S
WALKER         FAIR      60  28  29 N3        30.23F
$$
MNZ012-019>021-037-041900-
   Northeast Minnesota

CITY           SKY/WX    TMP DP  RH WIND       PRES   REMARKS
DULUTH         PTSUNNY   63  23  21 MISG      30.19S
6HR MIN TEMP:  45; 6HR MAX TEMP:  63;

ELY            SUNNY     59  23  25 NW9       30.19S
HIBBING        SUNNY     63  20  19 NW13G18   30.21S
EVELETH        SUNNY     59  23  25 NW12G17   30.22R
DULUTH HARBOR  PTSUNNY   64  25  22 N6        30.20S
TWO HARBORS    MOSUNNY   66  34  30 N6        30.16S
SILVER BAY     MOSUNNY   66  25  20 NW8       30.15F
GRAND MARAIS     N/A     48  38  68 SW15      30.17R
G MARAIS ARPRT SUNNY     61  27  27 W8G16     30.17R
$$
MNZ029>031-032-039>041-046>048-054>057-064-041900-
   West Central Minnesota

CITY           SKY/WX    TMP DP  RH WIND       PRES   REMARKS
FERGUS FALLS   PTSUNNY   63  34  34 CALM      30.23F
WHEATON        MOSUNNY   63  28  27 N3        30.23S
MORRIS         SUNNY     70  27  19 NW6       30.20S
ALEXANDRIA     MOSUNNY   63  30  28 MISG      30.23S
ELBOW LAKE     FAIR      63  30  29 NE6       30.21S
WADENA         PTSUNNY   61  36  39 NE9       30.23S
GLENWOOD       SUNNY     64  28  25 N10       30.22R
APPLETON       MOSUNNY   70  19  14 N8G17     30.20S
BENSON         SUNNY     70  19  14 NE7       30.21S
ORTONVILLE     MOSUNNY   68  21  17 NE8       30.21S
MADISON        SUNNY     68  23  18 NE7       30.20F
WILLMAR        FAIR      68  28  22 NE9       30.22R
$$
MNZ033>034-036-042>043-049>051-058-059-041900-
   Central Minnesota

CITY           SKY/WX    TMP DP  RH WIND       PRES   REMARKS
ST CLOUD       SUNNY     67  31  26 VRB7      30.20S
6HR MIN TEMP:  41; 6HR MAX TEMP:  67;

SAUK CENTRE    FAIR      64  31  29 N8G21     30.21S
PAYNESVILLE    SUNNY     64  29  27 NW8G17    30.21S
AITKIN         PTSUNNY   64  25  22 NW7G16    30.21S
PINE RIVER     PTSUNNY   61  34  36 NW12      30.26S
BRAINERD       PTSUNNY   62  32  32 N8G20     30.23S
STAPLES        PTSUNNY   61  30  31 N8        30.22F
LONG PRAIRIE   FAIR      63  32  31 N5G17     30.22R
LITTLE FALLS   MOSUNNY   63  30  29 NW7       30.21F
LITCHFIELD     SUNNY     68  30  24 NE14      30.20S
BUFFALO        MOSUNNY   67  32  27 N9        30.20F
MAPLE LAKE     SUNNY     68  38  32 N12       30.20F
$$
MNZ037-044-045-052-053-041900-
   East Central Minnesota

CITY           SKY/WX    TMP DP  RH WIND       PRES   REMARKS
PRINCETON      SUNNY     68  30  24 N8G23     30.20S
MORA           MOSUNNY   64  32  29 NW9       30.22S
CAMBRIDGE      SUNNY     68  41  37 N9        30.18S
RUSH CITY      SUNNY     66  29  24 NW9G16    30.20S
MOOSE LAKE     PTSUNNY   63  32  31 N9G17     30.18F
HINCKLEY       FAIR      64  32  29 NE13      30.19F
CLOQUET        PTSUNNY   63  14  15 NW12G20   30.20S
MCGREGOR       PTSUNNY   63  28  27 N8G18     30.22S
$$
MNZ071>073-080-081-089-090-097-098-041900-
   Southwest Minnesota

CITY           SKY/WX    TMP DP  RH WIND       PRES   REMARKS
MONTEVIDEO     MOSUNNY   72  27  18 E3        30.20F
GRANITE FALLS  SUNNY     68  29  23 E7        30.21S
CANBY          MOSUNNY   68  27  21 N7        30.21F
MARSHALL       MOSUNNY   68  27  21 E8        30.19F
REDWOOD FALLS  SUNNY     70  26  19 N9G17     30.19S
OLIVIA         SUNNY     68  30  24 NE7       30.19R
PIPESTONE      MOSUNNY   66  25  20 NE10      30.18F
WINDOM         MOSUNNY   70  25  18 NE14      30.18S
WORTHINGTON    PTSUNNY   66  28  24 NE17G24   30.17F
JACKSON        PTSUNNY   70  21  16 NE14G24   30.18S
TRACY          SUNNY     70  28  20 NE7G18    30.19F
SLAYTON        MOSUNNY   69  24  18 E12G20    30.19F
$$
MNZ065>067-074>077-082>085-091>093-041900-
   South Central Minnesota

CITY           SKY/WX    TMP DP  RH WIND       PRES   REMARKS
MANKATO        SUNNY     66  34  30 NE16      30.19F
NEW ULM        SUNNY     68  27  21 NE8       30.18F
ST JAMES       MOSUNNY   70  21  16 N15G23    30.19S
FAIRMONT       MOSUNNY   70  28  21 E16       30.16F
GLENCOE        SUNNY     67  34  28 NE9       30.19S
FARIBAULT      SUNNY     66  34  30 N13G21    30.19F
OWATONNA       MOSUNNY   66  30  26 N14G21    30.18F
WASECA         SUNNY     64  32  29 NE14G20   30.19F
ALBERT LEA     MOSUNNY   64  36  34 NE13      30.17F
$$
MNZ078>079-086>088-094>096-041900-
   Southeast Minnesota

CITY           SKY/WX    TMP DP  RH WIND       PRES   REMARKS
ROCHESTER      MOSUNNY   65  38  36 NE12      30.19S
6HR MIN TEMP:  52; 6HR MAX TEMP:  65;

RED WING       MOSUNNY   66  30  26 NE9       30.18R
STANTON        MOSUNNY   68  31  25 N13G21    30.18S
DODGE CENTER   MOSUNNY   66  32  28 NE13      30.18S
WINONA         MOSUNNY   70  37  30 N3        30.16F
AUSTIN         MOSUNNY   64  41  42 N12G17    30.17F
PRESTON        MOSUNNY   63  37  38 NE12      30.17F
$$
ABBREVIATIONS USED IN REMARKS
   TC - TEMPERATURES IN CELSIUS
  WCI - WIND CHILL INDEX
   HX - HEAT INDEX
  VSB - VISIBILITY
$$


USA.gov is the U.S. government's official web portal to all federal, state and local government web resources and services.